[[{"header":{"parameterUnit":"m.s-1","parameterCategory":1,"la1":30.2992,"la2":30.254,"lo1":-89.0895,"lo2":-89.0443,"dy":0.0025,"dx":0.0025,"nx":19,"ny":19,"refTime":"2026-04-10T03:00:00:Z","depth":0,"parameterNumber":2,"parameterNumberName":"U-component_of_WINDS"},"data":[0,0,0,-2.7752,-2.7753,-2.7785,-2.7785,-2.7856,-2.7857,0,0,0,0,0,0,0,0,0,0,0,-2.7761,-2.7762,-2.7752,-2.7753,-2.7785,-2.7785,-2.7856,-2.7857,0,0,0,0,0,0,0,0,0,0,0,-2.776,-2.7761,-2.7763,-2.7753,-2.7785,-2.7785,-2.7855,-2.7821,0,0,0,0,0,0,0,0,0,0,-2.7785,-2.781,-2.7761,-2.7763,-2.7754,-2.7785,-2.7785,-2.7819,-2.7823,-2.7854,0,-2.7887,0,-2.7873,-2.7863,-2.7864,0,0,0,-2.774,-2.7807,-2.7799,-2.7763,-2.7754,-2.7785,-2.7767,-2.7821,-2.7826,-2.786,-2.7887,-2.7889,-2.7874,-2.7864,-2.7865,-2.8088,-2.809,0,0,-2.7738,-2.7776,-2.7796,-2.7803,-2.78,-2.7766,-2.7768,-2.7823,-2.7855,-2.7887,-2.789,-2.7875,-2.7865,-2.7865,-2.8087,-2.8089,0,0,0,-2.7742,-2.7776,-2.7766,-2.7801,-2.7804,-2.7767,-2.777,-2.7853,-2.7846,-2.7891,-2.7876,-2.7865,-2.7866,-2.8085,-2.8087,-2.8206,0,0,0,-2.774,-2.7778,-2.7766,-2.7789,-2.7804,-2.7829,-2.7799,-2.7843,-2.7848,-2.7876,-2.7865,-2.7867,-2.8083,-2.8086,-2.8199,-2.8256,0,0,0,-2.7752,-2.7779,-2.779,-2.7791,-2.7806,-2.7827,-2.7824,-2.7843,-2.784,-2.7864,-2.7868,-2.8082,-2.8086,-2.8193,-2.8245,-2.8326,0,0,0,-2.7776,-2.7896,-2.7792,-2.792,-2.7806,-2.7901,-2.7823,-2.7891,-2.7926,-2.7866,-2.8083,-2.8087,-2.819,-2.8239,-2.8319,-2.84,-2.8438,0,0,-2.7948,-2.7918,-2.799,-2.7898,-2.802,-2.7893,-2.8033,-2.8029,-2.7997,-2.806,-2.8065,-2.8201,-2.8245,-2.8325,-2.8635,-2.8665,0,0,0,-2.8057,-2.8109,-2.8133,-2.8168,-2.8168,-2.8172,-2.8143,-2.8141,-2.8193,-2.8037,-2.8251,-2.8276,-2.8321,-2.8358,-2.8384,-2.842,-2.8106,-2.8105,-2.8105,-2.8355,-2.8307,-2.8422,-2.8378,-2.8413,-2.8381,-2.8405,-2.8397,-2.8339,-2.8391,-2.8409,-2.8603,-2.8648,-2.8667,-2.8705,-2.8448,-2.8449,-2.8449,-2.8449,-2.8602,-2.8668,-2.8587,-2.867,-2.8619,-2.8688,-2.8662,-2.8618,-2.8676,-2.8585,-2.8623,-2.8528,-2.8701,-2.8732,-2.8458,-2.8456,-2.8455,-2.8454,-2.8454,-2.8792,-2.8815,-2.881,-2.8855,-2.8895,-2.8846,-2.8905,-2.8855,-2.881,-2.8847,-2.8861,-2.8859,-2.885,-2.8857,-2.8858,-2.8858,-2.8859,-2.8859,-2.886,-2.899,-2.8981,-2.9036,-2.9045,-2.9061,-2.9075,-2.9044,-2.9058,-2.9061,-2.9021,-2.9021,-2.8958,-2.8727,-2.867,-2.887,-2.8868,-2.8867,-2.8866,-2.8865,-2.9258,-2.9189,-2.9275,-2.929,-2.9296,-2.9339,-2.9276,-2.9309,-2.9313,-2.9343,-2.9272,-2.9109,-2.9075,-2.9054,-2.9007,-2.9282,-2.9282,-2.9282,-2.9282,-2.9418,-2.9396,-2.9471,-2.9499,-2.9521,-2.9472,-2.9569,-2.9547,-2.9512,-2.9512,-2.9465,-2.9398,-2.9379,-2.9356,-2.9329,-2.9283,-2.9623,-2.9623,-2.9624,-2.958,-2.9557,-2.965,-2.9614,-2.9616,-2.9618,-2.9708,-2.9744,-2.9691,-2.9636,-2.9511,-2.9497,-2.9387,-2.9354,-2.9297,-2.9256,-2.9172,0,0]},{"header":{"parameterUnit":"m.s-1","parameterCategory":1,"la1":30.2992,"la2":30.254,"lo1":-89.0895,"lo2":-89.0443,"dy":0.0025,"dx":0.0025,"nx":19,"ny":19,"refTime":"2026-04-10T03:00:00:Z","depth":0,"parameterNumber":3,"parameterNumberName":"V-component_of_WINDS"},"data":[0,0,0,1.321,1.321,1.3236,1.3236,1.3268,1.3268,0,0,0,0,0,0,0,0,0,0,0,1.3202,1.3202,1.3209,1.321,1.3236,1.3236,1.3268,1.3268,0,0,0,0,0,0,0,0,0,0,0,1.3202,1.3202,1.3202,1.321,1.3236,1.3236,1.3268,1.3248,0,0,0,0,0,0,0,0,0,0,1.3223,1.3216,1.3202,1.3202,1.321,1.3236,1.3236,1.3248,1.325,1.3256,0,1.3262,0,1.3265,1.327,1.327,0,0,0,1.321,1.3214,1.3222,1.3202,1.3211,1.3236,1.3224,1.3249,1.3251,1.3258,1.3262,1.3263,1.3266,1.327,1.3271,1.3308,1.3308,0,0,1.3208,1.3206,1.322,1.3223,1.322,1.3224,1.3225,1.325,1.3254,1.3262,1.3264,1.3267,1.3271,1.3271,1.3308,1.3308,0,0,0,1.3204,1.3205,1.3212,1.3222,1.3227,1.3224,1.3226,1.3253,1.3255,1.3264,1.3267,1.3271,1.3271,1.3307,1.3308,1.3314,0,0,0,1.3204,1.3203,1.3211,1.321,1.3226,1.324,1.3228,1.3253,1.3256,1.3267,1.3271,1.3271,1.3307,1.3307,1.3314,1.3317,0,0,0,1.32,1.3202,1.3206,1.321,1.3221,1.324,1.3244,1.3254,1.3258,1.327,1.3272,1.3307,1.3307,1.3313,1.3317,1.3326,0,0,0,1.3195,1.3211,1.3206,1.3225,1.3221,1.3244,1.3244,1.3261,1.3273,1.3271,1.3307,1.3308,1.3313,1.3316,1.3326,1.3333,1.3337,0,0,1.3214,1.3213,1.3225,1.3221,1.3245,1.3241,1.3265,1.3278,1.3281,1.3298,1.3299,1.3314,1.3316,1.3326,1.3357,1.336,0,0,0,1.323,1.3238,1.3245,1.3256,1.3267,1.3276,1.3286,1.329,1.3306,1.329,1.332,1.3322,1.3328,1.3332,1.3334,1.3338,1.331,1.3309,1.3309,1.3252,1.3256,1.3275,1.3282,1.3293,1.3303,1.3312,1.332,1.332,1.3327,1.3332,1.3351,1.3355,1.3357,1.3362,1.3337,1.3337,1.3337,1.3338,1.3279,1.3291,1.3292,1.3311,1.3315,1.333,1.334,1.334,1.3354,1.3347,1.3353,1.3344,1.336,1.3364,1.3338,1.3338,1.3338,1.3338,1.3338,1.3293,1.33,1.3306,1.3324,1.3336,1.3343,1.3357,1.336,1.3363,1.3368,1.3373,1.3373,1.3373,1.3371,1.3371,1.3371,1.3371,1.3371,1.3371,1.3305,1.3312,1.3324,1.3338,1.3346,1.3356,1.3367,1.3375,1.3384,1.3384,1.3385,1.3383,1.3361,1.3355,1.3372,1.3372,1.3371,1.3371,1.3371,1.333,1.3325,1.3343,1.3352,1.3368,1.338,1.3384,1.34,1.3406,1.3413,1.3411,1.3394,1.3394,1.3392,1.3387,1.3411,1.3411,1.3411,1.3411,1.3341,1.3342,1.3361,1.3374,1.3387,1.3393,1.3413,1.3421,1.3429,1.3433,1.343,1.3424,1.3422,1.3422,1.342,1.3415,1.3446,1.3446,1.3446,1.3356,1.3358,1.3375,1.3384,1.3397,1.3407,1.3426,1.344,1.3447,1.3447,1.3436,1.3435,1.3425,1.3421,1.342,1.3416,1.3407,0,0]}]]